HUYGENS (55093 NORAD) Tracking and Keplerian Element Data

This shows tracking and keplerian element data for the satellite.

Feedback or suggestion? Click here.




ElementValue
Catalog55093
NameHUYGENS
Epoch Orbit1874
Epoch Day126.44783611
Epoch Year2023
RAAN186.6882
Inclination97.4817
Eccentricity0.0017495
Argument of Perigee142.9651
Mean Anonmoly343.6869
Mean Motion15.15353975
Decay Rate5.615E-05
L11 55093U 23001CN 23126.44783611 .00005615 00000+0 30011-3 0 9990
L22 55093 97.4817 186.6882 0017495 142.9651 343.6869 15.15353975 18746



Live tracking and technical data element details for HUYGENS (NORAD 55093). HUYGENS can be tracked NOW for your location showing map with azimuth and elevation plus other details from your city location.







IsCatalogInMostPopularTable: catalog: 55093, numindb: -1

Insert: records affected: 1


GetName: 55093 HUYGENS

Hit Count: inserted at: Mon, 05 Jun 2023 19:00:12 GMT